Temp
11 11 11 11 10 10 10 9 9 9 9 9 8 8 8 8 8 8 8 8 8 8 8 8 8 8 8 8 8 8 7 7 7 7 8 8 8 8 8 8 8 8 8
12 11 11 11 10 10 10 9 9 9 9 9 9 8 8 8 8 8 8 8 8 8 8 8 8 8 8 8 7 7 7 8 7 8 8 8 8 8 8 8 8 8 8
12 11 11 11 11 10 10 10 9 9 9 9 9 8 8 8 8 8 8 8 8 8 8 8 8 7 7 7 7 7 8 8 8 8 8 8 8 8 8 8 8 8 8
12 12 11 11 11 10 10 10 9 9 9 9 9 9 8 8 8 8 8 8 8 8 8 8 8 7 7 7 7 7 7 7 7 8 8 8 8 8 8 8 8 8 8
12 11 11 11 11 11 10 10 9 9 9 9 9 9 8 8 8 8 8 8 8 8 8 8 8 7 7 7 7 7 7 7 8 8 8 7 7 8 8 8 8 8 8
12 11 11 11 11 11 10 10 10 9 9 9 9 9 8 8 8 8 8 8 8 8 8 8 7 7 7 8 8 8 8 8 8 8 8 7 7 7 7 7 7 8 8
12 12 11 11 11 11 10 10 10 10 9 9 9 9 9 9 8 8 8 8 8 8 8 8 8 8 8 8 8 8 8 8 8 8 8 7 8 8 7 8 8 8 7
12 12 11 11 11 11 10 10 10 10 10 10 10 9 9 9 9 9 9 9 9 9 8 8 8 8 8 8 8 8 8 8 8 8 7 7 7 7 7 7 7 7 7
12 12 12 11 11 11 11 10 10 10 10 10 10 10 9 9 9 9 9 9 9 9 9 8 8 8 8 8 8 8 8 8 8 7 7 7 7 7 7 7 7 7 7
13 12 12 12 11 11 11 11 10 10 10 10 10 10 9 9 9 9 9 9 9 9 9 8 8 8 8 8 8 8 8 8 8 8 8 7 7 7 7 7 7 7 7
13 13 12 12 11 11 11 11 11 11 10 10 10 10 9 9 9 9 9 9 9 9 9 9 8 9 8 8 8 8 8 8 8 8 8 7 7 7 7 7 7 7 7
14 13 13 12 12 11 11 11 11 11 10 10 10 10 9 9 9 9 9 9 9 9 9 9 8 8 8 8 8 8 7 7 7 8 8 8 8 8 8 7 7 7 7
14 14 13 13 12 12 12 11 11 11 10 10 10 10 10 9 9 9 9 9 9 9 9 9 8 8 8 8 8 9 9 7 7 9 8 8 8 8 8 7 7 7 7
15 14 13 13 13 13 12 12 11 11 10 10 10 10 10 10 9 9 9 9 9 9 9 9 9 9 8 8 8 8 8 8 8 8 8 8 8 8 8 8 8 8 8
15 15 14 14 13 13 12 12 12 11 11 10 10 10 10 10 10 9 9 9 9 9 9 9 9 9 9 9 9 8 8 8 8 8 8 8 8 8 8 8 8 8 8
15 15 15 14 13 13 12 12 12 12 11 11 11 10 10 10 10 10 9 9 9 9 9 9 9 9 9 8 8 9 8 8 8 8 8 8 8 8 8 8 8 8 8
15 15 15 15 14 14 13 12 12 12 12 12 11 11 10 10 10 10 10 10 9 9 9 9 9 9 9 9 8 8 8 8 8 8 7 8 8 8 8 8 8 8 7
14 15 15 15 15 14 14 12 12 12 12 12 11 11 11 11 11 10 10 10 10 10 10 9 9 9 9 9 9 9 8 8 8 8 8 8 8 8 8 7 7 8 7
15 14 14 15 15 14 14 14 12 12 12 11 11 11 11 11 11 11 10 10 10 10 10 10 10 9 9 9 9 9 9 9 8 8 8 8 8 7 7 7 7 7 7
14 14 14 14 14 14 14 13 13 13 12 12 11 11 11 11 11 11 11 10 10 10 10 10 10 10 10 9 9 9 9 9 9 9 8 8 8 8 8 7 7 7 7
12 12 13 13 14 14 14 14 14 14 13 12 12 11 11 11 10 10 11 10 10 10 10 10 10 10 10 9 9 9 9 8 9 8 8 8 8 7 7 7 7 7 7
12 12 12 13 13 13 13 13 13 13 13 12 11 11 11 11 11 10 10 10 10 10 10 10 9 9 9 9 9 8 9 8 9 8 8 7 7 7 7 7 6 6 6
13 13 12 12 13 12 13 12 12 12 12 12 12 12 12 12 11 11 11 10 10 10 10 10 10 9 9 9 9 9 9 9 8 8 8 8 7 7 7 7 6 6 7
13 13 13 13 12 12 12 12 12 12 13 13 12 12 12 12 11 11 11 11 10 10 10 10 10 10 9 9 9 9 9 8 8 8 8 8 8 8 7 7 6 6 6
13 13 13 13 13 12 12 12 12 12 12 12 12 12 11 11 11 11 11 11 11 10 10 10 10 10 10 10 10 9 9 9 8 8 9 8 8 7 7 7 7 7 6
13 13 13 13 12 12 12 12 12 12 12 12 12 12 12 12 12 12 12 11 11 11 11 11 10 10 10 10 10 10 9 9 9 8 8 9 8 8 7 7 7 7 6
Height
3180 3181 3181 3181 3181 3180 3181 3181 3181 3183 3184 3184 3185 3186 3187 3189 3190 3191 3193 3194 3196 3197 3198 3199 3199 3200 3200 3201 3201 3202 3202 3203 3204 3205 3205 3206 3206 3207 3207 3208 3208 3209 3208
3181 3181 3182 3182 3182 3181 3181 3182 3182 3183 3185 3186 3187 3188 3189 3191 3192 3193 3194 3195 3197 3199 3200 3201 3202 3202 3202 3203 3204 3205 3206 3206 3207 3208 3208 3209 3210 3210 3210 3210 3211 3211 3211
3182 3182 3183 3182 3183 3182 3182 3182 3183 3184 3185 3187 3188 3190 3191 3192 3193 3195 3196 3197 3198 3200 3202 3203 3204 3205 3206 3206 3207 3208 3209 3209 3209 3210 3211 3211 3212 3212 3213 3213 3214 3214 3214
3183 3183 3184 3184 3184 3184 3183 3183 3183 3185 3186 3188 3189 3190 3192 3194 3196 3197 3198 3199 3200 3201 3203 3205 3206 3207 3208 3209 3209 3210 3210 3211 3211 3211 3212 3214 3215 3215 3215 3215 3215 3215 3215
3183 3184 3185 3185 3185 3185 3184 3184 3185 3185 3188 3189 3190 3191 3193 3195 3196 3199 3200 3201 3202 3203 3205 3206 3207 3209 3210 3210 3211 3212 3212 3213 3214 3214 3213 3215 3216 3216 3217 3217 3217 3217 3216
3183 3184 3185 3186 3186 3186 3186 3184 3186 3187 3189 3190 3191 3193 3195 3196 3198 3199 3200 3202 3204 3206 3207 3208 3209 3210 3211 3211 3212 3213 3214 3215 3216 3215 3214 3216 3217 3217 3217 3217 3217 3217 3217
3182 3184 3185 3186 3187 3187 3188 3187 3186 3188 3190 3192 3193 3194 3195 3197 3199 3200 3201 3203 3204 3205 3207 3209 3211 3212 3213 3213 3213 3214 3214 3215 3217 3216 3215 3218 3219 3219 3219 3219 3219 3219 3219
3183 3184 3185 3186 3187 3188 3188 3189 3189 3188 3191 3193 3194 3195 3197 3198 3199 3201 3202 3204 3205 3206 3208 3209 3210 3212 3213 3214 3215 3216 3216 3217 3217 3217 3217 3219 3219 3219 3220 3220 3220 3220 3220
3182 3183 3184 3186 3187 3188 3188 3189 3190 3190 3191 3193 3195 3197 3198 3199 3200 3202 3204 3205 3206 3207 3208 3210 3211 3212 3214 3215 3216 3217 3218 3219 3219 3220 3219 3220 3221 3222 3222 3222 3222 3221 3221
3181 3182 3184 3185 3186 3188 3189 3190 3191 3192 3192 3194 3195 3197 3199 3200 3201 3202 3204 3205 3206 3207 3209 3210 3211 3212 3214 3215 3216 3217 3218 3219 3219 3219 3219 3221 3221 3222 3222 3222 3222 3222 3222
3179 3181 3182 3184 3185 3187 3189 3190 3191 3192 3193 3194 3196 3197 3199 3201 3201 3202 3204 3205 3206 3208 3208 3210 3211 3213 3214 3215 3216 3217 3218 3219 3219 3219 3219 3220 3222 3222 3222 3222 3222 3222 3222
3178 3179 3181 3183 3184 3185 3187 3189 3191 3192 3194 3195 3197 3198 3199 3201 3202 3203 3204 3206 3207 3209 3210 3211 3213 3214 3216 3217 3217 3217 3218 3219 3220 3221 3219 3220 3221 3222 3222 3222 3222 3222 3222
3177 3178 3180 3182 3183 3185 3186 3188 3190 3192 3193 3195 3196 3198 3199 3201 3202 3204 3205 3207 3208 3209 3211 3212 3214 3215 3216 3218 3219 3220 3220 3220 3219 3221 3221 3221 3221 3222 3222 3222 3222 3222 3221
3176 3177 3178 3180 3182 3184 3185 3187 3188 3190 3192 3194 3196 3197 3199 3200 3201 3203 3205 3206 3208 3210 3211 3213 3214 3215 3216 3217 3218 3219 3220 3220 3219 3220 3220 3220 3220 3220 3220 3220 3220 3220 3219
3175 3176 3176 3177 3179 3181 3183 3185 3187 3188 3190 3193 3194 3196 3198 3199 3201 3203 3204 3205 3207 3209 3211 3212 3214 3215 3216 3216 3217 3218 3218 3218 3218 3218 3218 3219 3219 3219 3218 3218 3217 3217 3216
3173 3174 3175 3175 3177 3179 3182 3183 3185 3187 3189 3190 3192 3194 3196 3197 3199 3201 3203 3204 3206 3207 3209 3210 3212 3213 3214 3215 3215 3215 3216 3216 3216 3215 3216 3216 3216 3216 3215 3215 3214 3213 3212
3171 3172 3172 3174 3175 3176 3179 3181 3183 3185 3186 3188 3190 3192 3194 3195 3197 3199 3200 3202 3204 3205 3206 3208 3209 3210 3211 3212 3212 3213 3213 3213 3214 3214 3213 3212 3213 3212 3212 3211 3210 3209 3208
3166 3169 3170 3171 3172 3173 3175 3178 3179 3182 3184 3186 3187 3189 3191 3193 3195 3196 3198 3199 3202 3202 3204 3205 3205 3207 3208 3209 3209 3210 3210 3210 3211 3210 3210 3209 3209 3208 3207 3206 3205 3204 3204
3159 3164 3166 3168 3169 3170 3172 3174 3177 3178 3180 3182 3184 3186 3188 3190 3192 3194 3196 3197 3198 3199 3200 3202 3203 3204 3204 3206 3206 3206 3206 3207 3207 3207 3207 3206 3204 3203 3203 3202 3200 3199 3198
3150 3157 3162 3164 3166 3167 3168 3170 3172 3173 3175 3178 3180 3182 3185 3186 3188 3190 3193 3194 3195 3196 3197 3198 3200 3201 3201 3201 3201 3202 3201 3201 3201 3202 3202 3201 3200 3200 3198 3196 3194 3194 3193
3142 3148 3154 3158 3161 3162 3163 3164 3167 3169 3171 3173 3175 3178 3180 3183 3184 3185 3188 3190 3191 3192 3194 3194 3195 3195 3197 3197 3196 3197 3197 3196 3197 3197 3196 3195 3194 3192 3191 3190 3189 3187 3186
3134 3139 3145 3152 3154 3157 3158 3161 3162 3165 3167 3169 3171 3173 3175 3177 3180 3181 3182 3185 3186 3187 3188 3189 3189 3190 3192 3193 3191 3191 3189 3191 3191 3190 3190 3189 3188 3187 3185 3183 3182 3180 3180
3124 3131 3136 3141 3147 3151 3154 3155 3157 3158 3160 3161 3164 3167 3169 3170 3173 3176 3178 3179 3181 3182 3183 3184 3185 3185 3185 3187 3186 3186 3184 3183 3184 3185 3183 3182 3181 3180 3178 3176 3174 3173 3172
3119 3122 3128 3133 3137 3142 3146 3148 3150 3152 3153 3156 3159 3162 3164 3166 3167 3170 3172 3174 3175 3175 3176 3178 3179 3179 3179 3180 3179 3179 3180 3179 3176 3174 3176 3177 3176 3174 3172 3170 3168 3166 3165
3114 3114 3118 3123 3128 3132 3135 3140 3142 3144 3148 3151 3152 3154 3157 3159 3160 3162 3164 3167 3168 3169 3170 3171 3171 3172 3172 3172 3173 3174 3173 3173 3172 3170 3167 3170 3167 3167 3166 3164 3162 3160 3159
3109 3109 3110 3114 3119 3124 3127 3130 3133 3137 3140 3143 3144 3146 3149 3151 3153 3154 3156 3157 3160 3161 3162 3163 3164 3164 3164 3164 3164 3166 3166 3166 3167 3166 3163 3162 3162 3161 3158 3156 3155 3154 3152
Wind_Speed
11 8 11 12 14 15 17 17 19 19 18 17 19 19 20 21 20 19 18 18 18 18 18 19 19 19 19 19 20 20 20 20 18 17 17 18 19 19 19 20 19 18 18
8 11 11 13 14 16 18 19 20 20 18 18 19 18 20 20 20 20 20 19 19 19 19 19 19 19 19 19 20 20 19 19 20 20 20 19 19 18 18 19 17 16 15
10 11 12 13 14 17 19 20 21 20 20 19 20 19 19 19 20 20 20 20 20 19 19 19 18 18 18 18 18 18 18 18 19 20 19 18 17 16 15 16 14 14 13
11 12 13 14 15 16 19 21 21 20 20 20 20 19 19 19 18 19 20 20 20 19 19 18 17 16 17 17 16 16 16 16 16 17 18 16 14 13 13 12 11 11 10
13 13 13 14 15 16 19 21 20 20 20 19 20 20 19 20 20 19 18 18 19 19 18 17 16 15 14 14 13 13 14 14 13 14 18 14 12 11 10 10 9 9 8
14 14 14 14 14 16 18 21 20 20 20 20 20 19 19 19 20 20 20 19 18 17 16 15 14 13 12 12 11 11 11 11 12 14 16 13 10 10 9 8 7 6 6
14 15 14 14 15 15 16 19 21 20 19 18 18 18 19 19 19 19 19 19 18 17 16 14 12 10 9 9 9 9 9 10 11 12 16 10 9 10 9 8 7 5 4
12 14 15 15 15 15 16 16 19 20 19 18 18 18 18 19 18 17 17 17 17 15 13 12 11 10 9 8 7 7 9 10 11 11 14 11 10 9 8 7 7 6 6
14 13 14 15 15 15 15 16 16 18 20 18 17 17 18 17 17 16 15 14 13 12 12 10 9 9 9 9 9 9 10 11 12 11 12 10 9 8 8 8 7 7 6
11 14 13 14 14 14 14 15 15 16 17 18 18 17 16 16 15 13 12 12 12 11 10 10 10 10 11 11 11 10 10 10 9 10 10 7 6 5 5 6 6 6 7
12 12 12 14 14 14 14 14 15 14 15 16 16 16 14 13 14 13 12 11 10 10 11 13 12 11 12 13 12 10 8 6 3 8 6 5 3 3 4 5 6 6 7
9 12 12 13 14 14 15 15 14 15 14 14 14 15 14 13 11 12 12 11 10 11 12 12 11 11 11 11 10 9 6 3 1 2 4 2 2 3 5 6 8 8 8
6 11 13 13 13 13 14 15 16 15 15 15 14 13 13 13 12 11 10 10 10 10 10 9 9 9 9 8 6 3 3 4 5 4 5 5 6 8 8 9 10 11 12
5 8 13 16 14 13 14 14 16 16 16 15 15 14 14 13 12 12 12 11 11 10 10 9 8 7 7 6 5 5 5 4 6 8 9 8 8 10 11 12 13 14 15
8 7 9 15 17 16 15 15 15 16 17 17 17 16 14 14 13 13 12 12 11 11 10 9 9 8 8 8 8 8 7 7 9 11 12 13 13 13 14 16 17 18 19
13 10 9 12 17 19 17 16 15 15 16 17 18 18 17 16 15 14 14 13 13 12 12 12 11 12 12 12 12 11 11 11 12 15 16 17 18 19 19 20 21 22 22
16 15 11 11 15 17 19 20 18 17 17 15 14 16 17 18 18 17 16 15 14 14 14 14 14 15 15 15 15 15 16 16 16 17 20 21 22 22 23 25 24 24 24
24 21 17 15 15 16 18 22 21 20 19 18 17 16 15 15 15 16 17 15 16 18 17 17 17 17 17 17 17 16 17 17 18 19 20 22 22 22 23 25 25 25 25
31 26 24 20 17 17 18 17 21 22 22 22 21 20 18 17 16 15 15 15 15 15 16 15 16 17 17 16 16 17 17 17 18 19 20 20 22 24 23 24 25 26 25
35 31 28 26 22 20 20 20 19 21 22 23 23 22 21 21 20 19 18 18 19 19 18 17 17 17 17 18 19 20 21 21 20 20 20 21 22 23 25 27 29 28 26
38 35 32 32 29 27 25 22 16 11 14 17 19 21 20 21 21 22 21 21 22 22 21 22 22 22 20 20 24 22 22 22 21 20 19 20 21 22 23 22 23 24 25
45 43 38 34 35 31 29 24 22 20 18 19 22 23 24 24 24 24 25 24 23 24 24 24 24 24 23 22 25 25 26 24 22 23 23 23 23 23 22 21 22 22 22
46 47 43 39 36 37 33 31 30 29 28 28 24 22 20 23 26 26 26 27 27 28 29 29 29 28 27 26 27 28 29 29 27 25 26 27 27 26 24 23 23 25 25
49 48 47 45 44 39 39 40 36 33 31 26 25 24 25 25 26 28 29 29 30 31 32 31 31 31 32 30 31 31 29 30 32 34 29 27 26 26 26 25 25 25 25
49 52 50 49 43 39 38 43 42 42 37 34 34 33 31 30 31 31 33 33 33 34 34 33 35 35 35 36 33 32 32 31 32 34 35 29 30 28 27 25 23 21 24
39 54 53 52 48 40 40 39 43 43 42 41 40 38 36 35 34 35 36 37 35 36 36 36 36 36 37 37 36 34 33 33 33 33 33 31 29 26 28 27 24 23 24
Wind_Direction
131 130 136 141 143 140 133 126 120 117 116 114 113 115 119 120 122 119 115 111 109 106 105 102 96 93 93 96 95 93 95 97 100 99 97 94 93 91 92 91 87 87 87
135 134 139 140 144 139 134 129 123 120 118 115 113 116 120 122 121 118 116 115 111 108 106 102 98 95 94 94 94 94 96 98 100 97 94 92 93 93 91 91 93 93 92
142 135 139 140 143 139 136 132 126 126 123 120 117 120 123 124 122 121 118 117 115 114 113 109 104 100 99 97 99 102 102 101 102 101 97 95 91 92 92 91 90 86 81
149 138 138 140 141 140 136 132 130 129 127 123 122 123 123 121 120 121 121 121 120 120 119 114 109 105 104 105 108 110 112 110 106 107 101 94 90 86 79 78 79 76 71
157 144 138 138 139 139 137 133 133 132 131 128 128 128 128 126 126 124 123 121 123 122 121 117 115 112 110 112 111 110 112 111 114 111 104 95 91 83 76 68 60 59 59
163 153 143 138 137 135 139 135 136 135 135 134 133 133 132 132 132 132 129 126 122 120 119 120 121 120 120 117 114 113 108 108 115 106 94 88 84 80 71 70 67 62 54
168 163 154 144 139 136 137 140 140 139 138 138 136 135 134 135 136 135 133 131 129 129 126 124 123 120 118 117 120 115 112 110 119 110 93 82 76 67 60 52 49 45 46
172 169 165 158 146 141 137 140 142 141 140 141 141 140 138 137 137 136 134 133 133 130 126 126 129 130 127 122 118 111 107 105 103 98 99 91 79 70 64 55 46 36 28
169 176 175 172 162 152 144 141 143 144 144 145 146 146 145 143 141 140 139 139 139 134 133 133 135 136 137 134 128 121 112 113 117 106 94 81 68 56 43 35 30 23 14
178 176 182 182 177 167 159 150 146 146 147 150 151 153 153 153 151 151 152 153 151 147 142 139 139 142 143 141 138 133 126 128 124 119 104 86 77 61 40 24 17 16 7
191 186 185 187 185 182 175 167 157 153 150 152 154 156 159 161 160 159 161 162 162 156 149 142 138 137 144 146 147 145 139 130 135 126 122 107 71 34 13 7 6 11 5
201 196 195 192 189 190 189 182 174 162 157 155 154 156 159 160 164 163 161 159 158 151 147 145 141 141 146 152 157 158 153 146 290 355 57 38 342 333 338 339 340 345 348
203 199 203 202 195 196 196 192 188 181 173 169 165 164 164 163 160 160 157 155 155 153 151 153 153 153 154 162 173 207 179 194 254 316 343 326 319 324 322 321 323 325 329
193 199 202 207 203 201 196 195 192 193 190 187 182 180 175 173 170 167 164 166 165 166 168 171 173 179 185 192 205 233 263 258 271 296 302 311 312 309 308 310 311 313 316
214 208 204 211 210 206 202 196 196 195 196 199 200 198 195 188 185 184 185 183 182 186 187 192 201 208 220 231 237 243 260 273 281 290 296 302 303 303 303 304 306 308 310
217 216 215 213 212 215 204 205 199 199 198 202 207 209 208 208 205 204 204 203 204 206 210 215 222 228 234 243 253 261 268 274 281 287 292 296 299 301 301 300 300 302 304
233 224 221 218 219 220 209 214 207 205 206 205 205 210 214 217 218 221 223 218 226 228 232 235 239 248 253 259 264 269 273 276 278 279 283 290 293 295 295 296 297 297 298
238 231 226 223 220 222 219 212 220 217 218 212 210 210 217 219 220 221 230 232 227 238 242 247 255 257 262 266 268 271 275 278 282 284 287 292 294 295 296 297 297 298 298
244 232 230 228 219 221 222 219 219 227 226 227 223 218 217 225 230 231 230 233 236 236 241 245 248 258 265 269 275 276 278 279 281 284 288 291 293 296 295 295 296 298 301
246 239 229 230 221 218 221 221 219 227 229 226 230 229 224 228 235 238 242 244 248 250 253 256 259 262 267 273 275 278 282 286 287 289 292 291 290 288 291 293 294 296 296
242 245 241 229 226 218 224 228 226 235 242 241 240 235 237 233 236 246 248 249 254 259 264 266 267 267 270 274 276 280 281 282 289 296 301 297 301 303 301 299 297 297 298
239 241 245 241 234 230 230 233 234 232 238 244 248 245 245 247 244 247 256 260 261 266 268 270 272 276 276 274 279 280 284 286 299 303 303 307 308 307 306 305 304 303 301
235 238 241 251 249 240 236 234 232 233 237 240 243 245 256 259 256 252 253 259 262 264 268 270 270 272 277 275 275 277 285 294 296 300 302 305 308 308 308 311 309 305 304
232 236 241 249 253 257 243 239 239 242 248 261 259 257 253 260 270 267 263 260 264 268 270 274 274 273 272 274 274 277 283 289 295 300 303 304 303 305 308 305 302 302 302
236 237 242 244 250 252 256 245 240 243 246 252 253 254 253 257 263 268 265 263 263 266 270 272 274 276 276 276 273 274 278 282 286 295 299 302 299 300 297 294 292 292 295
236 237 240 241 244 246 253 256 246 243 246 248 254 257 260 263 263 269 269 264 261 261 264 270 274 272 272 273 272 269 273 278 284 288 292 294 291 291 290 290 285 279 288